OM6ACB-6 Weather Reports


Display with metric or nautical units.
time (UTC)temp
F
wind
direction
speed
MPH
gust
MPH
rain 1hr
in
rain 24hr
in
rain mn
in
humidity
%
barometer
mb
20260904171537 73 52 0.0 4.0 0.00 0.00 0.00 21 1018.1
20260904170536 73 29 0.0 1.0 0.00 0.00 0.00 21 1018.2
20260904165536 74 93 0.0 1.0 0.00 0.00 0.00 21 1018.4
20260904164536 76 41 2.0 4.0 0.00 0.00 0.00 20 1018.6
20260904163536 76 59 2.0 5.0 0.00 0.00 0.00 20 1018.8
20260904162535 77 47 1.0 3.0 0.00 0.00 0.00 20 1019.0
20260904161535 78 18 3.0 6.0 0.00 0.00 0.00 20 1019.3
20260904160535 81 53 3.0 4.0 0.00 0.00 0.00 20 1019.6
20260904155534 81 17 2.0 4.0 0.00 0.00 0.00 20 1019.6
20260904154534 81 90 5.0 10.0 0.00 0.00 0.00 20 1019.6
20260904153534 80 57 5.0 8.0 0.00 0.00 0.00 20 1019.8
20260904152534 78 329 4.0 6.0 0.00 0.00 0.00 20 1019.8
20260904151533 76 19 3.0 5.0 0.00 0.00 0.00 20 1019.8
20260904150533 75 92 3.0 5.0 0.00 0.00 0.00 21 1019.8
20260904145533 75 55 3.0 8.0 0.00 0.00 0.00 20 1019.9
20260904144532 79 89 3.0 5.0 0.00 0.00 0.00 20 1020.2
20260904143532 77 159 4.0 7.0 0.00 0.00 0.00 20 1020.3
20260904142532 78 136 4.0 8.0 0.00 0.00 0.00 20 1020.4
20260904141532 79 87 4.0 7.0 0.00 0.00 0.00 20 1020.4
20260904140531 81 78 1.0 5.0 0.00 0.00 0.00 20 1020.7
20260904135531 81 85 3.0 6.0 0.00 0.00 0.00 20 1020.7
20260904134531 79 122 2.0 6.0 0.00 0.00 0.00 20 1020.8
20260904133530 80 68 1.0 5.0 0.00 0.00 0.00 20 1020.9
20260904132530 78 106 2.0 4.0 0.00 0.00 0.00 20 1021.0
20260904131530 80 109 3.0 6.0 0.00 0.00 0.00 20 1021.2
20260904130529 80 151 3.0 7.0 0.00 0.00 0.00 20 1021.3
20260904125529 81 110 3.0 9.0 0.00 0.00 0.00 20 1021.4
20260904124529 77 87 3.0 6.0 0.00 0.00 0.00 20 1021.3
20260904123529 79 109 2.0 4.0 0.00 0.00 0.00 20 1021.6
20260904122528 77 140 2.0 6.0 0.00 0.00 0.00 20 1021.5
20260904121528 81 112 2.0 4.0 0.00 0.00 0.00 20 1022.0
20260904120528 80 96 2.0 4.0 0.00 0.00 0.00 20 1022.0
20260904115527 81 84 3.0 7.0 0.00 0.00 0.00 20 1022.3
20260904114527 81 111 3.0 5.0 0.00 0.00 0.00 20 1022.5
20260904113527 82 109 3.0 8.0 0.00 0.00 0.00 20 1022.6
20260904112527 83 89 3.0 7.0 0.00 0.00 0.00 20 1022.9
20260904111526 77 146 4.0 11.0 0.00 0.00 0.00 20 1022.6
20260904110526 81 95 3.0 5.0 0.00 0.00 0.00 20 1022.7
20260904105526 77 95 3.0 5.0 0.00 0.00 0.00 20 1022.7
20260904104525 76 98 4.0 12.0 0.00 0.00 0.00 20 1022.7
20260904103525 77 102 3.0 6.0 0.00 0.00 0.00 20 1022.9
20260904102525 77 113 4.0 6.0 0.00 0.00 0.00 20 1022.9
20260904101525 79 101 3.0 8.0 0.00 0.00 0.00 20 1023.1
20260904100524 76 143 2.0 4.0 0.00 0.00 0.00 20 1022.9
20260904095524 77 114 3.0 6.0 0.00 0.00 0.00 20 1023.1
20260904094524 75 89 4.0 7.0 0.00 0.00 0.00 21 1023.0
20260904093523 76 119 1.0 3.0 0.00 0.00 0.00 20 1023.1
20260904092523 74 122 3.0 6.0 0.00 0.00 0.00 21 1023.1
20260904091523 74 120 3.0 6.0 0.00 0.00 0.00 21 1023.3
20260904090522 78 153 1.0 6.0 0.00 0.00 0.00 20 1023.6
20260904085522 77 136 2.0 4.0 0.00 0.00 0.00 20 1023.6
20260904084522 76 26 2.0 5.0 0.00 0.00 0.00 20 1023.4
20260904083522 76 112 2.0 4.0 0.00 0.00 0.00 20 1023.5
20260904082521 76 78 3.0 8.0 0.00 0.00 0.00 20 1023.5
20260904081521 77 66 2.0 5.0 0.00 0.00 0.00 20 1023.7
20260904080521 78 28 2.0 5.0 0.00 0.00 0.00 20 1023.7
20260904075520 77 69 2.0 6.0 0.00 0.00 0.00 20 1023.6
20260904074520 76 90 2.0 7.0 0.00 0.00 0.00 20 1023.5
20260904073520 79 36 1.0 5.0 0.00 0.00 0.00 20 1023.8
20260904072520 75 25 1.0 5.0 0.00 0.00 0.00 21 1023.5
20260904071519 70 47 1.0 3.0 0.00 0.00 0.00 22 1023.1
20260904070519 67 10 0.0 2.0 0.00 0.00 0.00 23 1022.7
20260904065519 67 356 0.0 1.0 0.00 0.00 0.00 23 1022.7
20260904064518 62 314 0.0 1.0 0.00 0.00 0.00 24 1022.5
20260904063518 61 0 0.0 0.0 0.00 0.00 0.00 24 1022.3
20260904062518 60 314 0.0 0.0 0.00 0.00 0.00 25 1022.2
20260904061518 60 0 0.0 0.0 0.00 0.00 0.00 25 1022.1
20260904060517 59 0 0.0 0.0 0.00 0.00 0.00 25 1022.0
20260904055517 58 0 0.0 0.0 0.00 0.00 0.00 25 1022.0
20260904054517 57 0 0.0 0.0 0.00 0.00 0.00 26 1022.0
20260904053516 57 0 0.0 0.0 0.00 0.00 0.00 26 1022.0
20260904052516 56 193 0.0 1.0 0.00 0.00 0.00 26 1021.8
20260904051516 56 315 0.0 0.0 0.00 0.00 0.00 26 1021.7
20260904050515 55 315 0.0 0.0 0.00 0.00 0.00 26 1021.7
20260904045515 54 314 0.0 1.0 0.00 0.00 0.00 28 1021.6
20260904044515 54 0 0.0 0.0 0.00 0.00 0.00 26 1021.6
20260904043515 54 0 0.0 0.0 0.00 0.00 0.00 26 1021.5
20260904042514 54 0 0.0 0.0 0.00 0.00 0.00 27 1021.5
20260904041514 53 225 0.0 0.0 0.00 0.00 0.00 30 1021.4
20260904040514 53 270 0.0 1.0 0.00 0.00 0.00 30 1021.5
20260904035513 53 0 0.0 0.0 0.00 0.00 0.00 28 1021.5
20260904034513 53 0 0.0 0.0 0.00 0.00 0.00 31 1021.3
20260904033513 52 0 0.0 0.0 0.00 0.00 0.00 36 1021.3
20260904032513 52 0 0.0 0.0 0.00 0.00 0.00 35 1021.4
20260904031512 52 0 0.0 0.0 0.00 0.00 0.00 37 1021.4
20260904030512 52 0 0.0 0.0 0.00 0.00 0.00 35 1021.4
20260904025512 53 0 0.0 0.0 0.00 0.00 0.00 32 1021.3
20260904024511 53 181 0.0 1.0 0.00 0.00 0.00 28 1021.4
20260904023511 53 181 0.0 1.0 0.00 0.00 0.00 27 1021.2
20260904022511 53 0 0.0 0.0 0.00 0.00 0.00 27 1021.3
20260904021510 53 156 0.0 2.0 0.00 0.00 0.00 27 1021.3
20260904020510 53 0 0.0 0.0 0.00 0.00 0.00 28 1021.4
20260904015510 52 0 0.0 0.0 0.00 0.00 0.00 28 1021.5
20260904014510 52 45 0.0 1.0 0.00 0.00 0.00 29 1021.6
20260904013509 52 1 0.0 0.0 0.00 0.00 0.00 30 1021.5
20260904012509 53 1 0.0 0.0 0.00 0.00 0.00 33 1021.5
20260904011509 52 225 0.0 2.0 0.00 0.00 0.00 30 1021.6
20260904010508 53 0 0.0 0.0 0.00 0.00 0.00 33 1021.7
20260904005508 52 0 0.0 0.0 0.00 0.00 0.00 30 1021.8
20260904004508 52 0 0.0 0.0 0.00 0.00 0.00 30 1021.8
20260904003508 52 0 0.0 0.0 0.00 0.00 0.00 35 1021.8
20260904002507 52 0 0.0 0.0 0.00 0.00 0.00 33 1021.8
20260904001507 52 0 0.0 0.0 0.00 0.00 0.00 33 1021.9
20260904000507 52 0 0.0 0.0 0.00 0.00 0.00 34 1021.9
20260903235506 51 0 0.0 0.0 0.00 0.00 0.00 37 1021.8
20260903234506 51 0 0.0 0.0 0.00 0.00 0.00 37 1021.9
20260903233506 51 0 0.0 0.0 0.00 0.00 0.00 41 1021.9
20260903232506 51 0 0.0 0.0 0.00 0.00 0.00 41 1022.0
20260903231505 50 0 0.0 0.0 0.00 0.00 0.00 44 1021.9
20260903230505 50 0 0.0 0.0 0.00 0.00 0.00 41 1021.9
20260903225505 50 0 0.0 0.0 0.00 0.00 0.00 40 1021.9
20260903224504 50 0 0.0 0.0 0.00 0.00 0.00 38 1021.8
20260903223504 50 0 0.0 0.0 0.00 0.00 0.00 35 1021.8
20260903222504 52 0 0.0 0.0 0.00 0.00 0.00 33 1021.9
20260903221504 52 0 0.0 0.0 0.00 0.00 0.00 33 1021.9
20260903220503 51 0 0.0 0.0 0.00 0.00 0.00 37 1021.9
20260903215503 51 0 0.0 0.0 0.00 0.00 0.00 38 1021.9
20260903214503 51 0 0.0 0.0 0.00 0.00 0.00 35 1021.7
20260903213502 51 0 0.0 0.0 0.00 0.00 0.00 33 1021.7
20260903212502 53 0 0.0 0.0 0.00 0.00 0.00 29 1021.9
20260903211502 53 0 0.0 0.0 0.00 0.00 0.00 30 1021.8
20260903210501 53 0 0.0 0.0 0.00 0.00 0.00 27 1021.8
20260903205501 53 0 0.0 0.0 0.00 0.00 0.00 32 1021.8
20260903204501 52 0 0.0 0.0 0.00 0.00 0.00 33 1021.7
20260903203501 53 0 0.0 0.0 0.00 0.00 0.00 31 1021.8
20260903202500 53 0 0.0 0.0 0.00 0.00 0.00 28 1021.8
20260903201500 54 0 0.0 0.0 0.00 0.00 0.00 28 1021.8
20260903200500 54 0 0.0 0.0 0.00 0.00 0.00 27 1021.7
20260903195459 54 0 0.0 0.0 0.00 0.00 0.00 26 1021.7
20260903194459 55 0 0.0 0.0 0.00 0.00 0.00 26 1021.8
20260903193459 54 0 0.0 0.0 0.00 0.00 0.00 26 1021.8
20260903192458 55 0 0.0 0.0 0.00 0.00 0.00 26 1021.9
20260903191458 56 0 0.0 0.0 0.00 0.00 0.00 26 1021.9
20260903190458 56 0 0.0 0.0 0.00 0.00 0.00 26 1022.0
20260903185458 57 0 0.0 0.0 0.00 0.00 0.00 26 1021.9
20260903184457 57 0 0.0 0.0 0.00 0.00 0.00 26 1021.9
20260903183457 57 0 0.0 0.0 0.00 0.00 0.00 26 1021.8
20260903182457 58 0 0.0 0.0 0.00 0.00 0.00 25 1021.8
20260903181456 59 0 0.0 0.0 0.00 0.00 0.00 25 1021.9
20260903180456 60 0 0.0 0.0 0.00 0.00 0.00 25 1021.8
20260903175456 61 0 0.0 0.0 0.00 0.00 0.00 24 1021.9
20260903174456 63 0 0.0 0.0 0.00 0.00 0.00 24 1022.1
20260903173455 64 181 0.0 0.0 0.00 0.00 0.00 24 1022.2